Jaffrey, NH

5:47 PM EDT on May 28, 2017 (GMT -0400)
Jaffrey Airport-Silver Ranch

Weather History for KAFN - October, 2012

Change the Weather History Date:

Sunday, October 14, 2012

  Actual Average Record
Temperature  
Mean Temperature 51 °F -  
Max Temperature 60 °F 55 °F 75 °F (2000)
Min Temperature 42 °F 36 °F 27 °F (2002)
Degree Days  
Heating Degree Days 14    
Growing Degree Days 1 (Base 50)    
Moisture  
Dew Point 44 °F    
Average Humidity 79    
Maximum Humidity 87    
Minimum Humidity 68    
Precipitation  
Precipitation 0.56 in - - ()
Sea Level Pressure  
Sea Level Pressure 30.10 in    
Wind  
Wind Speed 6 mph (SSW)    
Max Wind Speed 10 mph    
Max Gust Speed 18 mph    
Visibility 8 miles    
Events Rain    
Averages and records for this station are not official NWS values.
T = Trace of Precipitation, MM = Missing Value Source: NWS Daily Summary

Daily Weather History Graph

Daily Weather History Graph

Search for Another Location

Airport or City:

Trip Planner

Search our weather history database for the weather conditions in past years. The results will help you decide how hot, cold, wet, or windy it might be!

Date:

Astronomy

Oct. 14, 2012 Rise Set
Actual Time 7:00 AM EDT 6:06 PM EDT
Civil Twilight 6:32 AM EDT 6:34 PM EDT
Nautical Twilight 5:59 AM EDT 7:07 PM EDT
Astronomical Twilight 5:26 AM EDT 7:40 PM EDT
Moon 5:55 AM EDT (10/14) 5:24 PM EDT (10/14)
Length of Visible Light 12h 02m
Length of Day
11h 05m
Waning Crescent, 1% of the Moon is Illuminated
Oct 14
Waning Crescent
Oct 15
New
Oct 21
First Quarter
Oct 29
Full
Nov 6
Last Quarter

Hourly Weather History & Observations

Time (EDT) Temp. Windchill Dew Point Humidity Pressure Visibility Wind Dir Wind Speed Gust Speed Precip Events Conditions
1:52 AM 44.1 °F 41.5 °F 34.0 °F 68% 30.27 in 10.0 mi South 4.6 mph - 0.00 in Rain Light Rain
2:52 AM 43.0 °F - 36.0 °F 76% 30.26 in 10.0 mi Calm Calm - 0.01 in Rain Light Rain
3:52 AM 43.0 °F 41.3 °F 36.0 °F 76% 30.22 in 10.0 mi South 3.5 mph - 0.00 in Rain Light Rain
4:01 AM 42.8 °F 40.1 °F 35.6 °F 76% 30.18 in 10.0 mi South 4.6 mph - 0.00 in Rain Light Rain
4:09 AM 42.8 °F 41.1 °F 37.4 °F 81% 30.19 in 9.0 mi South 3.5 mph - 0.00 in Rain Light Rain
4:52 AM 43.0 °F 38.8 °F 37.9 °F 82% 30.20 in 4.0 mi South 6.9 mph - 0.09 in Rain Rain
5:23 AM 44.6 °F 40.2 °F 39.2 °F 81% 30.15 in 2.5 mi South 8.1 mph - 0.11 in Rain Heavy Rain
5:30 AM 44.6 °F 40.2 °F 39.2 °F 81% 30.15 in 3.0 mi South 8.1 mph - 0.14 in Rain Heavy Rain
5:52 AM 46.0 °F 41.4 °F 41.0 °F 83% 30.17 in 5.0 mi SSW 9.2 mph - 0.19 in Rain Rain
6:12 AM 46.4 °F 41.5 °F 41.0 °F 81% 30.12 in 4.0 mi South 10.4 mph - 0.05 in Rain Rain
6:30 AM 46.4 °F 41.9 °F 41.0 °F 81% 30.11 in 6.0 mi SSW 9.2 mph - 0.08 in Rain Rain
6:52 AM 46.9 °F - 42.1 °F 83% 30.15 in 4.0 mi SSW 10.4 mph - 0.12 in Rain Rain
6:59 AM 46.4 °F 41.9 °F 42.8 °F 87% 30.11 in 5.0 mi SSW 9.2 mph - 0.01 in Rain Light Rain
7:09 AM 46.4 °F 42.4 °F 42.8 °F 87% 30.12 in 5.0 mi SSW 8.1 mph - 0.03 in Rain Rain
7:23 AM 46.4 °F 42.4 °F 42.8 °F 87% 30.11 in 9.0 mi SSW 8.1 mph 17.3 mph 0.04 in Rain Light Rain
7:49 AM 48.2 °F - 42.8 °F 82% 30.11 in 1.8 mi SSW 8.1 mph - 0.07 in Rain Heavy Rain
7:52 AM 48.0 °F - 43.0 °F 83% 30.15 in 2.0 mi SW 9.2 mph - 0.07 in Rain Light Rain
8:02 AM 48.2 °F - 42.8 °F 82% 30.11 in 5.0 mi SSW 8.1 mph 18.4 mph 0.01 in Rain Light Rain
8:52 AM 48.9 °F - 43.0 °F 80% 30.14 in 10.0 mi SSW 9.2 mph 17.3 mph 0.03 in Rain Light Rain
9:52 AM 50.0 °F - 45.0 °F 83% 30.13 in 7.0 mi SSW 8.1 mph - 0.01 in Rain Light Rain
10:52 AM 51.1 °F - 45.0 °F 80% 30.12 in 10.0 mi SSW 9.2 mph 17.3 mph 0.01 in Rain Light Rain
11:52 AM 51.1 °F - 46.0 °F 83% 30.12 in 10.0 mi SW 9.2 mph - 0.00 in Rain Light Rain
12:52 PM 52.0 °F - 46.9 °F 83% 30.10 in 9.0 mi SSW 8.1 mph 18.4 mph 0.03 in Rain Light Rain
1:52 PM 53.1 °F - 48.0 °F 83% 30.08 in 10.0 mi SW 6.9 mph - 0.00 in   Overcast
2:52 PM 55.0 °F - 50.0 °F 83% 30.05 in 10.0 mi SSW 8.1 mph - N/A   Overcast
3:12 PM 57.2 °F - 50.0 °F 77% 30.02 in 10.0 mi SSW 6.9 mph - N/A   Overcast
3:33 PM 57.2 °F - 50.0 °F 77% 30.01 in 10.0 mi SSW 8.1 mph - N/A   Overcast
4:31 PM 60.8 °F - 50.0 °F 68% 30.00 in 10.0 mi SSW 6.9 mph - N/A   Scattered Clouds
4:52 PM 60.1 °F - 50.0 °F 69% 30.02 in 10.0 mi SSW 6.9 mph - N/A   Clear
5:52 PM 59.0 °F - 50.0 °F 72% 30.01 in 10.0 mi South 3.5 mph - N/A   Clear
6:52 PM 59.0 °F - 50.0 °F 72% 30.01 in 10.0 mi SSW 4.6 mph - N/A   Clear
7:52 PM 59.0 °F - 48.9 °F 69% 30.00 in 10.0 mi SSW 9.2 mph - N/A   Clear
8:52 PM 57.0 °F - 48.9 °F 74% 29.99 in 10.0 mi SW 4.6 mph - N/A   Clear
9:52 PM 57.9 °F - 50.0 °F 75% 29.98 in 10.0 mi SSW 8.1 mph - N/A   Clear
10:52 PM 59.0 °F - 50.0 °F 72% 29.97 in 10.0 mi SSW 5.8 mph - N/A   Clear
11:52 PM 59.0 °F - 51.1 °F 75% 29.94 in 10.0 mi SSW 5.8 mph - N/A   Clear